This demonstration page uses our WeatherBlox Daily Observations layout. Learn more.

Left ArrowRight Arrow

39.95238, -75.16362

Hourly Observations for May 20, 2015

Temp ( °F °C ) Dew Point ( °F °C ) Humidity (%) Winds ( mph kmh ) Pressure ( in mb ) Visibility ( mi km ) Precip ( " mm )
12:54 am 00:54 Clear 75 23.9 51 10.6 43 43 NW 13 20 29.84 1011 10 16 0.00 0.00
1:54 am 01:54 Clear 70 21.1 51 10.6 51 51 N 14 22 29.87 1012 10 16 0.00 0.00
2:54 am 02:54 Clear 67 19.4 48 8.9 51 51 N 15 24 29.88 1012 10 16 0.00 0.00
3:54 am 03:54 Clear 64 17.8 47 8.3 54 54 N 8 13 29.90 1013 10 16 0.00 0.00
4:54 am 04:54 Clear 63 17.2 47 8.3 56 56 NNW 10 17 29.90 1013 10 16 0.00 0.00
5:54 am 05:54 Partly Cloudy 62 16.7 46 7.8 56 56 NW 8 13 29.91 1013 10 16 0.00 0.00
6:54 am 06:54 Mostly Cloudy 61 16.1 45 7.2 56 56 NW 10 17 29.92 1013 10 16 0.00 0.00
7:54 am 07:54 Mostly Cloudy 61 16.1 43 6.1 52 52 NW 9 15 29.93 1013 10 16 0.00 0.00
8:54 am 08:54 Mostly Cloudy 61 16.1 42 5.6 50 50 NW 13 20 29.94 1014 10 16 0.00 0.00
9:54 am 09:54 Mostly Cloudy 63 17.2 42 5.6 47 47 NW 17 28 29.93 1014 10 16 0.00 0.00
10:54 am 10:54 Mostly Cloudy 64 17.8 41 5 43 43 WNW 16 26 29.94 1014 10 16 0.00 0.00
11:54 am 11:54 Mostly Cloudy 66 18.9 43 6.1 43 43 NNW 18 30 29.95 1014 10 16 0.00 0.00
12:54 pm 12:54 Mostly Cloudy 68 20 41 5 38 38 NNW 20 31 29.95 1014 10 16 0.00 0.00
1:54 pm 13:54 Mostly Cloudy 66 18.9 40 4.4 39 39 WNW 15 24 29.94 1014 10 16 0.00 0.00
2:54 pm 14:54 Mostly Cloudy 67 19.4 39 3.9 36 36 NNW 18 30 29.94 1014 10 16 0.00 0.00
3:54 pm 15:54 Mostly Cloudy 66 18.9 39 3.9 37 37 WNW 13 20 29.95 1014 10 16 0.00 0.00
4:54 pm 16:54 Mostly Cloudy 67 19.4 37 2.8 33 33 WNW 15 24 29.96 1015 10 16 0.00 0.00
5:54 pm 17:54 Mostly Cloudy 66 18.9 37 2.8 34 34 NW 17 28 29.96 1014 10 16 0.00 0.00
6:54 pm 18:54 Mostly Cloudy 65 18.3 36 2.2 34 34 NNW 17 28 29.96 1015 10 16 0.00 0.00
7:54 pm 19:54 Mostly Cloudy 63 17.2 36 2.2 37 37 NW 10 17 29.99 1016 10 16 0.00 0.00
8:54 pm 20:54 Mostly Cloudy 63 17.2 36 2.2 37 37 WNW 8 13 30.01 1016 10 16 0.00 0.00
9:54 pm 21:54 Mostly Cloudy 62 16.7 37 2.8 40 40 NW 9 15 30.02 1017 10 16 0.00 0.00
10:54 pm 22:54 Mostly Cloudy 60 15.6 36 2.2 41 41 N 9 15 30.03 1017 10 16 0.00 0.00
11:54 pm 23:54 Mostly Cloudy 59 15 34 1.1 39 39 N 9 15 30.02 1017 10 16 0.00 0.00

Powered by AerisWeather